User: anonymous   Login
Location: Oshawa
(43.9000°N, 78.8670°W)
Time: 03:26:55
(UTC-04:00)
Language:

Altair - Orbit

View from above orbital plane
View from above orbital plane
View from above satellite
View from above satellite

Ground track
Ground track

The orbit data is extracted from the following two-line orbital elements,

1 00050U 60009B   15215.51714852 -.00000128  00000-0 -39015-3 0  9991
2 00050 047.2290 245.5231 0112952 061.0350 300.1710 12.20091888453360
Epoch (UTC): 03 August 2015 12:24:41
Eccentricity: 0.0112952
inclination: 47.2290°
perigee height: 1502 km
apogee height: 1682 km
right ascension of ascending node: 245.5231°
argument of perigee: 61.0350°
revolutions per day: 12.20091888
mean anomaly at epoch: 300.1710°
orbit number at epoch: 45336

The dashed part of the orbit path shows where the satellite is in the earth's shadow,  

DLR